LiveATC.Net - Listen to live air traffic control over the Internet!


ICAO: LFLL  IATA: LYS   Airport: Lyon-Saint-Exupery Airport
City: Lyon
Country: France   Continent: Europe
LFLL METAR Weather: LFLL 010800Z 01007KT 290V050 9999 SCT017 16/12 Q1020 NOSIG
LFLL Flight Activity (FlightAware)

LFLL Tower
Feed Status: UP   Listeners: 0
Listen in your browser - HTML5 player (in browser, HTML5)
Click here to listen with your own player (launches your MP3 player)
Archive Access: LFLL Tower
FacilityFrequency
Lyon Tower120.450

Lyon FIS
Feed Status: UP   Listeners: 0
Listen in your browser - HTML5 player (in browser, HTML5)
Click here to listen with your own player (launches your MP3 player)
Archive Access: Lyon FIS
FacilityFrequency
Lyon FIS135.200

NOTICE

Unauthorized use prohibited. See LiveATC.net Terms of Service


Airport/ARTCC Code
Frequency Search
(e.g., 124.400, 128.75)
Site-wide search
 


Browse Feeds
Top 50 Feeds
HF Oceanic Feeds
Coverage Map
Bad Weather Areas

LiveATC FAQ
Offer LiveATC feed
Contact LiveATC.net
Press Inquiries

LiveATC on iPhone
LiveATC on Android

LiveATC Mobile
(Mobile browser)

ATC Audio Archives
Interesting Recordings

LiveATC Forums


Home Page
About LiveATC.net


Terms of Use
Privacy Policy

AIRMETs/SIGMETs

FAA Airport Status
NAS Status
Arrival Demand


Server Software By:
Icecast.org
Liquidsoap